Flag for Estonia Weather past 2 weeks in Tartu, Estonia

Now
34 °F

Overcast.


Feels Like: 25 °F
Forecast: 28 / 33 °F
Wind: 13 mph from West

Location: Tartu/Ulenurme

Current Time: Dec 21, 2014 at 5:43:00 AM

Latest Report: Dec 21, 2014 at 4:50 AM


Visibility: N/A

Pressure: 29.33 "Hg

Humidity: 81%

Dew point: 28 °F

Location of TartuLocation

Historic Weather in Tartu — Graph

°F

Tartu temperature yesterday

Maximum temperature yesterday: 39 °F (at 3:50 AM)
Minimum temperature yesterday: 34 °F (at 2:50 PM)
Average temperature yesterday: 36 °F

Past Weeks' High & Low Weather Summary

 TemperatureHumidityPressure
High43 °F (Dec 19, 3:50 PM)93% (Dec 6, 9:50 AM)30.21 "Hg (Dec 6, 9:50 AM)
Low28 °F (Dec 6, 3:50 AM)69% (Dec 10, 9:50 PM)28.85 "Hg (Dec 13, 7:50 AM)
Average35 °F85%29.66 "Hg
* Reported Dec 6 3:50 AM — Dec 21 3:50 AM, Tartu, Weather by CustomWeather, © 2014

Note: Actual official high and low records may vary slightly from our data, if they occured in-between our weather recording intervals... More about our weather records

Advertising

Tartu weather history for previous 24 hours

 ConditionsComfort  
Time TempWeatherWind HumidityBarometerVisibility
3:50 AM
Dec 21
34 °FOvercast.12 mph93%29.30 "HgN/A
2:50 AM36 °FOvercast.12 mph87%29.27 "HgN/A
1:50 AM36 °FPartly cloudy.13 mph87%29.27 "HgN/A
12:50 AM36 °FLow clouds.8 mph87%29.24 "HgN/A
11:50 PM
Dec 20
36 °FLow clouds.12 mph87%29.24 "HgN/A
10:50 PM34 °FLow clouds.13 mph93%29.21 "HgN/A
9:50 PM34 °FMostly cloudy.10 mph93%29.21 "HgN/A
8:50 PM34 °FMostly cloudy.12 mph93%29.21 "HgN/A
7:50 PM34 °FPartly cloudy.14 mph93%29.18 "HgN/A
6:50 PM36 °FSnow flurries. Overcast.14 mph87%29.18 "Hg3 mi
5:50 PM36 °FLight rain. Partly cloudy.15 mph87%29.18 "HgN/A
4:50 PM36 °FPartly cloudy.9 mph87%29.18 "HgN/A
3:50 PM34 °FSnow flurries. Mostly cloudy.9 mph93%29.18 "Hg6 mi
2:50 PM34 °FSnow showers. Cloudy.15 mph87%29.21 "Hg1 mi
1:50 PM36 °FBroken clouds.13 mph87%29.18 "HgN/A
12:50 PM36 °FBroken clouds.15 mph87%29.18 "HgN/A
11:50 AM37 °FSprinkles. Broken clouds.16 mph87%29.18 "HgN/A
10:50 AM36 °FScattered clouds.15 mph93%29.18 "HgN/A
9:50 AM36 °FBroken clouds.13 mph93%29.18 "HgN/A
8:50 AM36 °FPassing clouds.12 mph87%29.18 "HgN/A
7:50 AM36 °FPassing clouds.13 mph87%29.18 "HgN/A
6:50 AM36 °FPartly cloudy.17 mph87%29.18 "HgN/A
5:50 AM36 °FMostly cloudy.16 mph93%29.15 "HgN/A
Weather by CustomWeather, © 2014

See weather overviewHow to use our weather pages